User: anonymous   Login
Location: Asheville, NC
(35.6000°N, 82.5500°W)
Time: 16:54:06
(UTC-05:00)
Language:

XW-2A - Orbit

View from above orbital plane
View from above orbital plane
View from above satellite
View from above satellite

Ground track
Ground track

The orbit data is extracted from the following two-line orbital elements,

1 40903U 15049E   18023.36190399  .00001973  00000-0  51600-4 0  9995
2 40903  97.4017  56.6867 0014198 185.8829 174.2252 15.39921916131518
Epoch (UTC): 23 January 2018 08:41:08
Eccentricity: 0.0014198
inclination: 97.4017°
perigee height: 436 km
apogee height: 456 km
right ascension of ascending node: 56.6867°
argument of perigee: 185.8829°
revolutions per day: 15.39921916
mean anomaly at epoch: 174.2252°
orbit number at epoch: 13151

The dashed part of the orbit path shows where the satellite is in the earth's shadow,  

DLR